Time,TemperatureF,DewpointF,PressureIn,WindDirection,WindDirectionDegrees,WindSpeedMPH,WindSpeedGustMPH,Humidity,HourlyPrecipIn,Conditions,Clouds,dailyrainin,SoftwareType,DateUTC
2013-09-28 00:00:00,53.5,51.2,30.08,WNW,292,0.0,3.0,92,0.00,,,0.00,VWS V14.01,2013-09-28 04:00:00,
2013-09-28 00:15:00,53.3,51.3,30.08,WNW,292,0.0,0.0,93,0.00,,,0.00,VWS V14.01,2013-09-28 04:15:00,
2013-09-28 00:30:00,53.1,50.5,30.08,NW,315,0.0,4.0,91,0.00,,,0.00,VWS V14.01,2013-09-28 04:30:00,
2013-09-28 00:45:00,52.9,50.3,30.08,NW,315,0.0,0.0,91,0.00,,,0.00,VWS V14.01,2013-09-28 04:45:00,
2013-09-28 01:00:00,52.5,50.2,30.08,NW,315,0.0,0.0,92,0.00,,,0.00,VWS V14.01,2013-09-28 05:00:00,
2013-09-28 01:15:00,52.2,50.5,30.08,NW,315,0.0,2.0,94,0.00,,,0.00,VWS V14.01,2013-09-28 05:15:00,
2013-09-28 01:30:00,52.0,50.9,30.07,North,0,0.0,6.0,96,0.00,,,0.00,VWS V14.01,2013-09-28 05:30:00,
2013-09-28 01:45:00,51.9,51.1,30.07,North,0,0.0,0.0,97,0.00,,,0.00,VWS V14.01,2013-09-28 05:45:00,
2013-09-28 02:00:00,51.9,51.1,30.07,North,0,0.0,0.0,97,0.00,,,0.00,VWS V14.01,2013-09-28 06:00:00,
2013-09-28 02:15:00,51.9,51.4,30.07,North,0,0.0,0.0,98,0.00,,,0.00,VWS V14.01,2013-09-28 06:15:00,
2013-09-28 02:30:00,51.6,51.1,30.06,North,0,0.0,0.0,98,0.00,,,0.00,VWS V14.01,2013-09-28 06:30:00,
2013-09-28 02:45:00,51.1,50.6,30.06,North,0,0.0,0.0,98,0.00,,,0.00,VWS V14.01,2013-09-28 06:45:00,
2013-09-28 03:00:00,50.7,50.2,30.06,North,0,0.0,0.0,98,0.00,,,0.00,VWS V14.01,2013-09-28 07:00:00,
2013-09-28 03:15:00,50.7,50.4,30.06,North,0,0.0,0.0,99,0.00,,,0.00,VWS V14.01,2013-09-28 07:15:00,
2013-09-28 03:30:00,50.7,50.4,30.06,North,0,0.0,0.0,99,0.00,,,0.00,VWS V14.01,2013-09-28 07:30:00,
2013-09-28 03:45:00,50.8,50.5,30.06,North,0,0.0,0.0,99,0.00,,,0.00,VWS V14.01,2013-09-28 07:45:00,
2013-09-28 04:00:00,50.7,50.4,30.06,North,0,0.0,0.0,99,0.00,,,0.00,VWS V14.01,2013-09-28 08:00:00,
2013-09-28 04:15:00,50.8,50.3,30.07,North,0,0.0,0.0,98,0.00,,,0.00,VWS V14.01,2013-09-28 08:15:00,
2013-09-28 04:30:00,51.0,50.5,30.07,North,0,0.0,0.0,98,0.00,,,0.00,VWS V14.01,2013-09-28 08:30:00,
2013-09-28 04:45:00,51.0,50.5,30.07,North,0,0.0,0.0,98,0.00,,,0.00,VWS V14.01,2013-09-28 08:45:00,
2013-09-28 05:00:00,50.8,50.3,30.07,North,0,0.0,0.0,98,0.00,,,0.00,VWS V14.01,2013-09-28 09:00:00,
2013-09-28 05:15:00,50.8,50.0,30.07,North,0,0.0,0.0,97,0.00,,,0.00,VWS V14.01,2013-09-28 09:15:00,
2013-09-28 05:30:00,50.8,50.0,30.07,North,0,0.0,0.0,97,0.00,,,0.00,VWS V14.01,2013-09-28 09:30:00,
2013-09-28 05:45:00,50.8,49.7,30.07,North,0,0.0,0.0,96,0.00,,,0.00,VWS V14.01,2013-09-28 09:45:00,
2013-09-28 06:00:00,50.8,49.7,30.08,North,0,0.0,0.0,96,0.00,,,0.00,VWS V14.01,2013-09-28 10:00:00,
2013-09-28 06:15:00,50.8,50.0,30.09,North,0,0.0,0.0,97,0.00,,,0.00,VWS V14.01,2013-09-28 10:15:00,
2013-09-28 06:30:00,50.5,49.4,30.09,North,0,0.0,0.0,96,0.00,,,0.00,VWS V14.01,2013-09-28 10:30:00,
2013-09-28 06:45:00,50.5,49.4,30.10,North,0,0.0,0.0,96,0.00,,,0.00,VWS V14.01,2013-09-28 10:45:00,
2013-09-28 07:00:00,50.5,49.4,30.10,North,0,0.0,0.0,96,0.00,,,0.00,VWS V14.01,2013-09-28 11:00:00,
2013-09-28 07:30:00,50.7,49.6,30.12,NW,317,0.0,0.0,96,0.00,,,0.00,VWS V14.01,2013-09-28 11:30:00,
2013-09-28 07:35:00,50.7,49.6,30.12,NW,317,0.0,0.0,96,0.00,,,0.00,VWS V14.01,2013-09-28 11:35:00,
2013-09-28 07:40:00,50.7,49.6,30.12,NW,317,0.0,0.0,96,0.00,,,0.00,VWS V14.01,2013-09-28 11:40:00,
2013-09-28 07:45:00,50.7,49.6,30.12,NW,317,0.0,0.0,96,0.00,,,0.00,VWS V14.01,2013-09-28 11:45:00,
2013-09-28 07:51:00,50.8,49.7,30.12,NW,317,0.0,0.0,96,0.00,,,0.00,VWS V14.01,2013-09-28 11:51:00,
2013-09-28 07:56:00,50.8,49.7,30.12,NW,317,0.0,0.0,96,0.00,,,0.00,VWS V14.01,2013-09-28 11:56:00,
2013-09-28 08:01:00,51.0,49.9,30.12,NW,317,0.0,0.0,96,0.00,,,0.00,VWS V14.01,2013-09-28 12:01:00,
2013-09-28 08:06:00,51.0,49.9,30.13,NW,317,0.0,0.0,96,0.00,,,0.00,VWS V14.01,2013-09-28 12:06:00,
2013-09-28 08:11:00,51.1,50.0,30.13,NW,317,0.0,0.0,96,0.00,,,0.00,VWS V14.01,2013-09-28 12:11:00,
2013-09-28 08:17:00,51.3,49.9,30.13,NW,317,0.0,0.0,95,0.00,,,0.00,VWS V14.01,2013-09-28 12:17:00,
2013-09-28 08:22:00,51.4,50.0,30.14,NW,317,0.0,0.0,95,0.00,,,0.00,VWS V14.01,2013-09-28 12:22:00,
2013-09-28 08:27:00,51.6,50.2,30.14,NW,317,0.0,0.0,95,0.00,,,0.00,VWS V14.01,2013-09-28 12:27:00,
2013-09-28 08:32:00,51.7,50.0,30.14,NW,317,0.0,0.0,94,0.00,,,0.00,VWS V14.01,2013-09-28 12:32:00,
2013-09-28 08:37:00,51.9,50.2,30.13,NW,317,0.0,0.0,94,0.00,,,0.00,VWS V14.01,2013-09-28 12:37:00,
2013-09-28 08:42:00,52.2,50.2,30.13,NW,317,0.0,0.0,93,0.00,,,0.00,VWS V14.01,2013-09-28 12:42:00,
2013-09-28 08:48:00,52.2,50.2,30.13,NW,317,0.0,0.0,93,0.00,,,0.00,VWS V14.01,2013-09-28 12:48:00,
2013-09-28 08:53:00,52.5,50.2,30.13,NW,317,0.0,0.0,92,0.00,,,0.00,VWS V14.01,2013-09-28 12:53:00,
2013-09-28 08:58:00,52.5,50.2,30.13,NW,317,0.0,0.0,92,0.00,,,0.00,VWS V14.01,2013-09-28 12:58:00,
2013-09-28 09:03:00,52.6,50.3,30.13,NW,317,0.0,0.0,92,0.00,,,0.00,VWS V14.01,2013-09-28 13:03:00,
2013-09-28 09:08:00,52.9,50.6,30.14,NW,317,0.0,0.0,92,0.00,,,0.00,VWS V14.01,2013-09-28 13:08:00,
2013-09-28 09:13:00,53.1,50.8,30.14,NW,317,0.0,0.0,92,0.00,,,0.00,VWS V14.01,2013-09-28 13:13:00,
2013-09-28 09:19:00,53.1,50.5,30.14,NW,317,0.0,0.0,91,0.00,,,0.00,VWS V14.01,2013-09-28 13:19:00,
2013-09-28 09:24:00,53.1,50.5,30.14,NW,317,0.0,0.0,91,0.00,,,0.00,VWS V14.01,2013-09-28 13:24:00,
2013-09-28 09:29:00,53.3,51.0,30.14,NW,317,0.0,0.0,92,0.00,,,0.00,VWS V14.01,2013-09-28 13:29:00,
2013-09-28 09:34:00,53.3,51.3,30.15,NW,317,0.0,0.0,93,0.00,,,0.00,VWS V14.01,2013-09-28 13:34:00,
2013-09-28 09:39:00,53.3,51.0,30.15,NW,317,0.0,0.0,92,0.00,,,0.00,VWS V14.01,2013-09-28 13:39:00,
2013-09-28 09:44:00,53.5,51.5,30.15,NW,317,0.0,0.0,93,0.00,,,0.00,VWS V14.01,2013-09-28 13:44:00,
2013-09-28 09:49:00,53.6,51.3,30.14,NW,317,0.0,0.0,92,0.00,,,0.00,VWS V14.01,2013-09-28 13:49:00,
2013-09-28 09:55:00,53.9,51.6,30.14,NW,317,0.0,0.0,92,0.00,,,0.00,VWS V14.01,2013-09-28 13:55:00,
2013-09-28 10:00:00,53.8,50.9,30.14,NW,317,0.0,0.0,90,0.00,,,0.00,VWS V14.01,2013-09-28 14:00:00,
2013-09-28 10:05:00,53.5,50.3,30.15,NW,317,0.0,0.0,89,0.00,,,0.00,VWS V14.01,2013-09-28 14:05:00,
2013-09-28 10:10:00,53.5,50.6,30.15,NW,317,0.0,3.0,90,0.00,,,0.00,VWS V14.01,2013-09-28 14:10:00,
2013-09-28 10:15:00,53.6,50.7,30.15,NW,317,0.0,3.0,90,0.00,,,0.00,VWS V14.01,2013-09-28 14:15:00,
2013-09-28 10:20:00,53.9,50.7,30.15,NW,317,0.0,0.0,89,0.00,,,0.00,VWS V14.01,2013-09-28 14:20:00,
2013-09-28 10:25:00,53.8,50.3,30.15,NW,317,0.0,1.0,88,0.00,,,0.00,VWS V14.01,2013-09-28 14:25:00,
2013-09-28 10:30:00,53.9,50.4,30.15,NW,317,0.0,1.0,88,0.00,,,0.00,VWS V14.01,2013-09-28 14:30:00,
2013-09-28 10:36:00,53.8,49.7,30.15,NW,317,0.0,0.0,86,0.00,,,0.00,VWS V14.01,2013-09-28 14:36:00,
2013-09-28 10:41:00,53.8,50.0,30.15,NW,318,0.0,0.0,87,0.00,,,0.00,VWS V14.01,2013-09-28 14:41:00,
2013-09-28 10:46:00,54.2,50.1,30.15,NW,318,0.0,0.0,86,0.00,,,0.00,VWS V14.01,2013-09-28 14:46:00,
2013-09-28 10:51:00,54.2,49.5,30.15,NW,323,0.0,0.0,84,0.00,,,0.00,VWS V14.01,2013-09-28 14:51:00,
2013-09-28 10:56:00,54.1,49.7,30.15,NW,324,0.0,0.0,85,0.00,,,0.00,VWS V14.01,2013-09-28 14:56:00,
2013-09-28 11:01:00,53.9,50.1,30.15,NNW,343,0.0,4.0,87,0.00,,,0.00,VWS V14.01,2013-09-28 15:01:00,
2013-09-28 11:07:00,54.1,50.3,30.15,NNW,343,0.0,0.0,87,0.00,,,0.00,VWS V14.01,2013-09-28 15:07:00,
2013-09-28 11:12:00,54.2,50.4,30.15,NNW,343,0.0,0.0,87,0.00,,,0.00,VWS V14.01,2013-09-28 15:12:00,
2013-09-28 11:17:00,55.1,51.0,30.15,NNW,343,0.0,2.0,86,0.00,,,0.00,VWS V14.01,2013-09-28 15:17:00,
2013-09-28 11:22:00,55.7,51.0,30.16,North,1,3.0,5.0,84,0.00,,,0.00,VWS V14.01,2013-09-28 15:22:00,
2013-09-28 11:27:00,54.8,51.0,30.16,North,0,0.0,5.0,87,0.00,,,0.00,VWS V14.01,2013-09-28 15:27:00,
2013-09-28 11:32:00,54.5,50.7,30.16,NE,37,0.0,5.0,87,0.00,,,0.00,VWS V14.01,2013-09-28 15:32:00,
2013-09-28 11:37:00,54.7,50.3,30.15,NE,37,0.0,0.0,85,0.00,,,0.00,VWS V14.01,2013-09-28 15:37:00,
2013-09-28 11:43:00,55.1,51.0,30.15,North,0,0.0,3.0,86,0.00,,,0.00,VWS V14.01,2013-09-28 15:43:00,
2013-09-28 11:48:00,55.3,50.9,30.15,North,0,0.0,3.0,85,0.00,,,0.00,VWS V14.01,2013-09-28 15:48:00,
2013-09-28 11:53:00,55.1,50.7,30.15,North,0,0.0,0.0,85,0.00,,,0.00,VWS V14.01,2013-09-28 15:53:00,
2013-09-28 11:58:00,54.7,51.2,30.15,North,0,0.0,0.0,88,0.00,,,0.00,VWS V14.01,2013-09-28 15:58:00,
2013-09-28 12:03:00,54.4,51.5,30.15,North,0,0.0,0.0,90,0.00,,,0.00,VWS V14.01,2013-09-28 16:03:00,
2013-09-28 12:08:00,53.9,50.7,30.15,North,0,0.0,0.0,89,0.00,,,0.00,VWS V14.01,2013-09-28 16:08:00,
2013-09-28 12:13:00,53.8,50.9,30.15,North,358,0.0,5.0,90,0.00,,,0.00,VWS V14.01,2013-09-28 16:13:00,
2013-09-28 12:19:00,53.9,51.3,30.15,North,358,0.0,5.0,91,0.00,,,0.00,VWS V14.01,2013-09-28 16:19:00,
2013-09-28 12:24:00,54.1,51.2,30.16,North,358,0.0,0.0,90,0.00,,,0.00,VWS V14.01,2013-09-28 16:24:00,
2013-09-28 12:29:00,54.1,50.9,30.16,North,353,0.0,4.0,89,0.00,,,0.00,VWS V14.01,2013-09-28 16:29:00,
2013-09-28 12:34:00,54.4,50.9,30.16,North,352,0.0,4.0,88,0.00,,,0.00,VWS V14.01,2013-09-28 16:34:00,
2013-09-28 12:39:00,54.5,50.7,30.16,North,1,0.0,6.0,87,0.00,,,0.00,VWS V14.01,2013-09-28 16:39:00,
2013-09-28 12:44:00,54.7,50.9,30.16,North,358,0.0,6.0,87,0.00,,,0.00,VWS V14.01,2013-09-28 16:44:00,
2013-09-28 12:49:00,54.7,50.9,30.15,North,358,0.0,6.0,87,0.00,,,0.00,VWS V14.01,2013-09-28 16:49:00,
2013-09-28 12:55:00,54.8,50.1,30.15,North,358,0.0,4.0,84,0.00,,,0.00,VWS V14.01,2013-09-28 16:55:00,
2013-09-28 13:00:00,54.8,49.7,30.15,North,356,0.0,7.0,83,0.00,,,0.00,VWS V14.01,2013-09-28 17:00:00,
2013-09-28 13:05:00,55.0,50.3,30.14,North,356,0.0,7.0,84,0.00,,,0.00,VWS V14.01,2013-09-28 17:05:00,
2013-09-28 13:10:00,55.1,50.4,30.14,North,356,0.0,0.0,84,0.00,,,0.00,VWS V14.01,2013-09-28 17:10:00,
2013-09-28 13:15:00,54.8,50.1,30.14,NNW,340,0.0,6.0,84,0.00,,,0.00,VWS V14.01,2013-09-28 17:15:00,
2013-09-28 13:20:00,54.7,50.3,30.14,NNW,345,0.0,0.0,85,0.00,,,0.00,VWS V14.01,2013-09-28 17:20:00,
2013-09-28 13:25:00,54.5,50.4,30.14,NNW,345,0.0,0.0,86,0.00,,,0.00,VWS V14.01,2013-09-28 17:25:00,
2013-09-28 13:30:00,54.5,50.7,30.14,North,349,0.0,0.0,87,0.00,,,0.00,VWS V14.01,2013-09-28 17:30:00,
2013-09-28 13:35:00,54.8,50.7,30.14,North,349,0.0,0.0,86,0.00,,,0.00,VWS V14.01,2013-09-28 17:35:00,
2013-09-28 13:41:00,55.0,50.6,30.14,North,349,0.0,0.0,85,0.00,,,0.00,VWS V14.01,2013-09-28 17:41:00,
2013-09-28 13:46:00,54.5,50.7,30.14,North,349,0.0,3.0,87,0.00,,,0.00,VWS V14.01,2013-09-28 17:46:00,
2013-09-28 13:51:00,54.4,50.9,30.14,North,349,0.0,0.0,88,0.00,,,0.00,VWS V14.01,2013-09-28 17:51:00,
2013-09-28 13:56:00,54.4,51.2,30.14,North,349,0.0,0.0,89,0.00,,,0.00,VWS V14.01,2013-09-28 17:56:00,
2013-09-28 14:01:00,54.4,50.9,30.14,North,349,0.0,0.0,88,0.00,,,0.00,VWS V14.01,2013-09-28 18:01:00,
2013-09-28 14:06:00,54.7,50.9,30.13,North,349,0.0,0.0,87,0.00,,,0.00,VWS V14.01,2013-09-28 18:06:00,
2013-09-28 14:11:00,55.0,50.6,30.13,North,349,0.0,0.0,85,0.00,,,0.00,VWS V14.01,2013-09-28 18:11:00,
2013-09-28 14:17:00,55.1,50.4,30.13,NNE,16,0.0,3.0,84,0.00,,,0.00,VWS V14.01,2013-09-28 18:17:00,
2013-09-28 14:22:00,54.7,50.0,30.12,NNE,14,0.0,0.0,84,0.00,,,0.00,VWS V14.01,2013-09-28 18:22:00,
2013-09-28 14:27:00,55.0,50.3,30.12,North,358,0.0,3.0,84,0.00,,,0.00,VWS V14.01,2013-09-28 18:27:00,
2013-09-28 14:32:00,55.1,50.0,30.12,ENE,67,0.0,3.0,83,0.00,,,0.00,VWS V14.01,2013-09-28 18:32:00,
2013-09-28 14:37:00,55.7,50.0,30.12,ENE,65,0.0,0.0,81,0.00,,,0.00,VWS V14.01,2013-09-28 18:37:00,
2013-09-28 14:42:00,56.2,49.4,30.12,ENE,63,0.0,2.0,78,0.00,,,0.00,VWS V14.01,2013-09-28 18:42:00,
2013-09-28 14:47:00,56.5,50.1,30.12,North,4,3.0,5.0,79,0.00,,,0.00,VWS V14.01,2013-09-28 18:47:00,
2013-09-28 14:53:00,56.2,49.8,30.12,North,4,0.0,0.0,79,0.00,,,0.00,VWS V14.01,2013-09-28 18:53:00,
2013-09-28 14:58:00,55.9,50.5,30.12,North,0,0.0,6.0,82,0.00,,,0.00,VWS V14.01,2013-09-28 18:58:00,
2013-09-28 15:03:00,55.7,50.6,30.12,North,0,0.0,6.0,83,0.00,,,0.00,VWS V14.01,2013-09-28 19:03:00,
2013-09-28 15:08:00,55.6,50.5,30.12,North,0,0.0,0.0,83,0.00,,,0.00,VWS V14.01,2013-09-28 19:08:00,